CAPE
1 0 nan nan nan 2 1 nan nan nan nan nan nan nan nan nan nan nan nan nan nan nan nan nan nan nan nan nan nan nan nan nan nan nan nan nan nan nan nan nan nan nan nan nan nan nan nan nan nan nan nan nan nan nan nan 0 0 2 2 3 3 4 5 4 4 3 1 nan nan nan nan nan nan nan nan nan nan nan 2 6 6 12 10 9 9 67
nan nan nan nan nan nan nan nan nan nan nan nan nan nan nan nan nan nan nan nan nan nan nan nan nan nan nan nan nan nan nan nan nan nan nan nan nan nan nan nan nan nan nan nan nan nan nan nan nan nan nan nan nan nan nan nan nan 0 2 4 4 7 8 7 7 5 2 nan nan nan nan nan nan nan nan nan nan nan 2 6 6 11 15 15 15 101
0 nan nan nan nan nan 0 nan nan nan nan nan nan nan nan nan nan nan nan nan nan nan nan nan nan nan nan nan nan nan nan nan nan nan nan nan nan nan nan nan nan nan nan nan nan nan nan nan nan nan nan nan nan nan nan nan nan nan 1 4 4 7 7 6 6 4 1 nan nan nan nan nan nan nan nan nan nan nan 2 7 7 11 18 23 23 131
0 0 1 nan nan nan nan nan nan nan nan nan nan nan nan nan nan nan nan nan nan nan nan nan nan nan nan nan nan nan nan nan nan nan nan nan nan nan nan nan nan nan nan nan nan nan nan 0 0 0 nan nan nan nan nan nan nan nan 1 5 5 6 6 5 5 4 0 nan nan nan nan nan nan nan nan nan nan nan 1 5 5 10 17 25 25 85
nan nan nan 0 0 nan nan nan nan nan nan nan nan nan nan nan nan nan nan nan nan nan nan nan nan nan nan nan nan nan nan nan nan nan nan nan nan nan nan nan nan nan nan nan nan nan nan nan nan 3 3 1 0 0 nan nan nan 0 2 4 4 6 7 7 7 4 1 nan nan nan nan nan nan nan nan nan 0 0 2 4 4 10 16 23 23 33
nan nan nan nan nan nan nan nan nan nan nan nan nan nan nan nan nan nan nan nan nan nan nan nan nan nan nan nan nan nan nan nan nan nan nan nan nan nan nan nan nan nan nan nan nan nan nan nan nan nan 0 1 1 1 2 2 2 4 6 8 8 8 9 9 9 6 1 nan nan nan nan nan nan nan nan 0 2 2 4 5 5 10 18 23 23 30
nan nan nan nan nan nan nan nan nan nan nan nan nan nan nan nan nan nan nan nan nan nan nan nan nan nan nan nan nan nan nan nan nan nan nan nan nan nan nan nan nan nan nan nan nan nan nan nan nan nan nan nan 1 1 4 7 7 11 12 12 12 13 14 13 13 8 3 0 nan nan nan nan nan nan nan 0 3 3 6 8 8 10 18 22 22 29
nan nan nan nan nan nan nan nan nan nan nan nan nan nan nan nan nan nan nan nan nan nan nan nan nan nan nan nan nan nan nan nan nan nan nan nan nan nan nan nan nan nan nan nan nan nan nan nan nan nan nan nan nan nan nan 0 0 1 3 5 5 8 18 23 23 21 16 8 2 2 1 1 1 1 1 1 3 3 6 9 9 12 16 25 25 28
nan nan nan nan nan nan nan nan nan nan nan nan nan nan nan nan nan nan nan nan nan nan nan nan nan nan nan nan nan nan nan nan nan nan nan nan nan nan nan nan nan nan nan nan nan nan nan nan nan nan nan nan nan nan nan nan nan nan nan nan nan 0 4 15 15 23 24 17 13 13 8 3 4 4 4 3 3 3 4 7 7 10 15 23 23 31
nan nan nan nan nan nan nan nan nan nan nan nan nan nan nan nan nan nan nan nan nan nan nan nan nan nan nan nan nan nan nan nan nan nan nan nan nan nan nan nan nan nan nan nan nan nan nan nan nan nan nan nan nan nan nan nan nan nan nan nan nan nan nan 4 4 15 24 19 19 19 9 8 7 7 6 6 4 4 4 5 5 7 10 17 17 27
nan nan nan nan nan nan nan nan nan nan nan nan nan nan nan nan nan nan nan nan nan nan nan nan nan nan nan nan nan nan nan nan nan nan nan nan nan nan nan nan nan nan nan nan nan nan nan nan nan nan nan nan nan nan nan nan nan nan nan nan nan nan nan nan nan nan 4 7 6 6 2 2 2 2 3 4 4 4 3 3 3 3 5 9 9 19
nan nan nan nan nan nan nan nan nan nan nan nan nan nan nan nan nan nan nan nan nan nan nan nan nan nan nan nan nan nan nan nan nan nan nan nan nan nan nan nan nan nan nan nan nan nan nan nan nan nan nan nan nan nan nan nan nan nan nan nan nan nan nan nan nan nan nan nan nan nan nan nan nan nan nan nan 0 0 0 0 0 1 2 6 6 13
nan nan nan nan nan nan nan nan nan nan nan nan nan nan nan nan nan nan nan nan nan nan nan nan nan nan nan nan nan nan nan nan nan nan nan nan nan nan nan nan nan nan nan nan nan nan nan nan nan nan nan nan nan nan nan nan nan nan nan nan nan nan nan nan nan nan nan nan nan nan nan nan nan nan nan nan nan nan nan nan nan nan 0 3 3 9
nan nan nan nan nan nan nan nan nan nan nan nan nan nan nan nan nan nan nan nan nan nan nan nan nan nan nan nan nan nan nan nan nan nan nan nan nan nan nan nan nan nan nan nan nan nan nan nan nan nan nan nan nan nan nan nan nan nan nan nan nan nan nan nan nan nan nan nan nan nan nan nan nan nan nan nan nan nan nan nan nan nan 0 2 2 8
nan nan nan nan nan nan nan nan nan nan nan nan nan nan nan nan nan nan nan nan nan nan nan nan nan nan nan nan nan nan nan nan nan nan nan nan nan nan nan nan nan nan nan nan nan nan nan nan nan nan nan nan nan nan nan nan nan nan nan nan nan nan nan nan nan nan nan nan nan nan nan nan nan nan nan nan nan nan nan nan nan nan 0 1 1 8
1 nan nan nan nan nan nan nan nan nan nan nan nan nan nan nan nan nan nan nan nan nan nan nan nan nan nan nan nan nan nan nan nan nan nan nan nan nan nan nan nan nan nan nan nan nan nan nan nan nan nan nan nan nan nan nan nan nan nan nan nan nan nan nan nan nan nan nan nan nan nan nan nan nan nan nan nan nan nan nan nan nan 1 4 4 8
1 3 8 4 4 2 nan nan nan nan nan nan nan nan nan nan nan nan nan nan nan nan nan nan nan nan nan nan nan nan nan nan nan nan nan nan nan nan nan nan nan nan nan nan nan nan nan nan nan nan nan nan nan nan nan nan nan nan nan nan nan nan nan nan nan nan nan nan nan nan nan nan nan nan nan nan nan nan nan nan nan nan 2 6 6 9
1 2 6 8 8 3 nan nan nan nan nan nan nan nan nan nan nan nan nan nan nan nan nan nan nan nan nan nan nan nan nan nan nan nan nan nan nan nan nan nan nan nan nan nan nan nan nan nan nan nan nan nan nan nan nan nan nan nan nan nan nan nan nan nan nan nan nan nan nan nan nan 0 0 0 nan nan nan nan nan nan nan 0 3 7 7 12
2 3 3 4 4 2 nan nan nan nan nan nan nan nan nan nan nan nan nan nan nan nan nan nan nan nan nan nan nan nan nan nan nan nan nan nan nan nan nan nan nan nan nan nan nan nan nan nan nan nan nan nan nan nan nan nan nan nan nan nan nan nan nan nan nan nan 0 0 0 0 1 2 2 2 2 0 0 0 nan nan nan 0 2 5 5 14
3 0 0 0 0 nan nan nan nan nan nan nan nan nan nan nan nan nan nan nan nan nan 1 1 1 2 0 nan nan nan nan nan nan nan nan 7 10 10 nan nan nan nan nan nan nan nan nan nan nan nan nan nan nan nan nan nan nan nan nan nan nan nan nan 0 0 1 1 1 3 3 3 3 5 5 4 4 3 3 1 0 0 1 2 6 6 13
nan nan nan nan nan nan nan nan nan nan nan nan nan nan nan nan nan nan nan nan nan nan 1 1 1 1 nan nan 0 0 nan nan 37 37 24 7 0 0 nan nan nan nan nan nan nan nan nan nan nan nan nan nan nan nan nan nan nan nan nan nan nan nan 1 2 2 3 4 6 6 6 6 7 8 8 10 9 8 8 4 2 2 1 2 5 5 10
nan nan nan nan nan nan nan nan nan nan nan nan nan nan nan nan nan nan nan nan nan nan 2 2 2 nan nan nan nan nan nan nan 0 0 0 nan nan nan nan nan nan nan nan nan nan nan nan nan nan nan nan nan nan nan nan nan nan nan nan nan nan 0 1 3 3 7 9 11 10 10 12 12 12 12 12 12 9 9 5 3 3 2 3 4 4 8
nan nan nan nan nan nan nan nan nan nan nan nan nan nan nan nan nan nan nan nan nan nan 0 nan nan nan nan nan nan nan nan nan nan nan 1 nan nan nan nan nan nan nan nan nan nan nan nan nan nan nan nan nan nan nan nan nan nan nan nan nan nan nan 1 3 3 6 10 13 14 14 14 13 13 13 11 10 7 7 5 4 4 4 4 5 5 7
nan nan nan nan nan nan nan nan nan nan nan nan nan nan nan nan nan nan nan nan nan nan nan nan nan nan nan nan 0 0 0 nan nan nan 0 nan nan nan nan nan nan nan nan nan nan nan nan nan nan nan nan nan nan nan nan nan nan nan nan nan nan nan 0 2 2 4 8 10 12 12 13 13 11 11 10 7 9 9 10 13 13 11 8 7 7 6
nan nan nan nan nan nan nan nan nan nan nan nan nan nan nan nan nan nan nan nan nan nan 0 0 0 0 0 11 2 2 0 nan nan nan nan nan nan nan nan nan nan nan nan nan nan nan nan nan nan nan nan nan nan nan nan nan nan nan nan nan nan nan nan 0 0 1 3 5 7 7 11 11 14 14 13 17 21 21 32 32 32 28 20 13 13 10
24 23 27 29 29 60 85 96 83 83 31 nan nan nan nan nan nan nan 0 2 2 1 nan nan nan 0 nan nan nan nan nan nan nan nan nan nan nan nan nan nan nan nan nan nan nan nan nan nan nan nan nan nan nan nan nan nan nan nan nan nan nan nan nan nan nan 0 2 3 8 8 13 18 25 25 32 38 40 40 44 40 40 41 31 24 24 16
78 76 83 93 93 105 114 117 138 138 158 120 49 49 14 9 4 4 0 nan nan nan nan nan nan nan nan nan nan nan nan nan nan nan nan nan nan nan nan nan nan nan nan nan nan nan nan nan nan nan nan nan nan nan nan nan nan nan nan nan nan nan nan nan nan 0 1 6 13 13 25 40 40 40 42 37 34 34 32 29 29 26 24 20 20 22
68 66 69 73 73 83 91 103 120 120 138 149 160 160 86 30 19 19 8 nan nan nan nan nan nan nan 1 3 7 7 18 16 0 0 nan nan nan nan nan nan nan nan nan nan nan nan nan nan nan nan nan nan nan nan nan nan nan nan nan nan nan nan nan nan nan nan 0 4 15 15 33 44 42 42 34 31 25 25 23 17 17 17 14 9 9 14
58 62 72 79 79 84 97 102 112 112 121 127 144 144 111 35 16 16 7 0 0 nan nan nan nan 5 11 14 25 25 19 18 9 9 1 nan nan nan nan nan nan nan nan nan nan nan nan nan nan nan nan nan nan nan nan nan nan nan nan nan nan nan nan nan nan nan nan 0 14 14 34 42 37 37 30 28 24 24 21 19 19 18 15 16 16 24
10 30 44 57 57 79 72 50 77 77 109 117 123 123 113 45 8 8 2 0 0 nan 2 12 12 21 19 12 3 3 1 nan 17 17 30 16 7 7 3 nan nan nan nan nan nan nan nan nan nan nan nan nan nan nan nan nan nan nan nan nan nan nan nan nan nan nan nan 0 13 13 29 37 36 36 31 28 24 24 24 22 22 18 15 34 34 62
nan nan nan 7 7 9 7 0 15 15 71 98 87 87 57 2 nan nan nan nan nan 2 7 12 12 13 13 7 3 3 0 nan 28 28 1 10 20 20 3 nan nan nan nan nan nan nan nan nan nan nan nan nan nan nan nan nan nan nan nan nan nan nan nan nan nan nan nan nan 11 11 23 26 26 26 24 20 17 17 20 26 26 24 23 56 56 82
12 9 9 6 6 4 6 6 1 1 0 1 2 2 12 5 nan nan nan nan nan nan nan nan nan 0 3 4 3 3 1 nan nan nan nan nan nan nan nan nan nan nan nan nan nan nan nan nan nan nan nan nan nan nan nan nan nan nan nan nan nan nan nan nan nan nan nan 1 0 0 nan nan 4 4 8 10 16 16 25 35 35 57 61 62 62 52
1 1 2 1 1 nan 2 2 4 4 10 8 3 3 4 6 12 12 5 1 1 1 1 0 0 0 1 nan nan nan nan nan 6 6 2 nan nan nan 1 nan nan nan nan nan nan nan nan nan nan nan nan nan nan nan nan nan nan nan nan nan nan nan nan nan nan nan nan nan nan nan nan nan nan nan 3 9 19 19 33 45 45 63 88 72 72 57
nan nan nan nan nan nan nan nan 1 1 10 29 49 49 19 nan nan nan nan nan nan nan nan nan nan nan 0 0 nan nan nan nan 9 9 19 6 9 9 11 1 1 nan nan nan nan nan nan nan nan nan nan nan nan nan nan nan nan nan nan nan nan nan nan nan nan nan nan nan nan nan nan nan nan nan 0 5 13 13 28 42 42 61 77 93 93 67
nan nan nan nan nan nan 0 nan nan nan 0 nan nan nan nan nan nan nan nan nan nan nan 0 4 4 3 0 1 1 1 0 nan 3 3 23 22 29 29 36 17 17 18 21 19 19 14 12 1 1 3 0 nan nan nan nan nan nan nan nan nan nan nan nan nan nan nan nan nan nan nan nan nan nan nan nan 3 9 9 19 33 33 47 66 87 87 72
nan nan nan nan nan nan 2 2 0 0 0 1 3 3 11 32 25 25 nan nan nan nan 1 1 1 nan nan 4 5 5 6 3 18 18 45 45 44 44 38 23 23 25 24 31 31 33 37 35 35 50 45 16 8 8 nan nan nan nan nan nan nan nan nan nan nan nan nan nan nan nan nan nan nan nan nan 3 8 8 14 26 26 39 52 63 63 66
nan nan nan nan nan 1 5 1 3 3 7 22 15 15 17 nan nan nan nan nan nan nan nan nan nan nan nan nan 0 0 5 11 23 23 43 41 45 45 36 23 23 25 18 16 16 13 20 15 15 12 6 2 nan nan nan nan nan nan nan nan nan nan nan nan nan nan nan nan nan nan nan nan nan nan nan 3 5 5 13 26 26 31 44 45 45 52
nan nan 0 1 1 1 1 3 5 5 1 nan nan nan nan nan nan nan nan nan nan nan nan nan nan nan nan nan nan nan nan nan nan nan 3 4 6 6 19 16 16 23 17 10 10 8 5 3 3 0 nan nan nan nan nan nan nan nan nan nan nan nan nan nan nan nan nan nan nan nan nan nan nan nan nan nan nan nan nan nan nan 5 16 18 18 36
nan 1 nan 2 2 0 nan 0 nan nan nan nan nan nan nan nan nan nan nan nan nan nan nan nan nan nan nan nan nan nan nan nan nan nan nan nan nan nan nan 2 2 5 7 5 5 6 6 2 2 1 0 nan nan nan nan nan nan nan nan nan nan nan nan nan nan nan nan nan nan nan nan nan nan nan nan nan nan nan nan nan nan nan nan nan nan 6
2 1 1 3 3 0 0 nan nan nan nan nan 1 1 0 nan nan nan nan nan nan nan nan nan nan nan nan nan nan nan nan nan nan nan nan nan nan nan nan nan nan 0 0 0 0 1 2 1 1 3 4 0 nan nan nan nan nan nan 1 nan nan nan nan nan nan nan nan nan nan nan nan nan nan nan nan nan nan nan nan nan nan nan nan nan nan 0
3 3 2 2 2 3 2 3 3 3 7 8 8 8 8 17 15 15 1 nan nan 2 0 nan nan nan nan nan nan nan nan nan nan nan nan nan nan nan nan nan nan nan nan nan nan nan 0 0 0 2 3 2 4 4 3 1 1 4 8 3 3 1 nan nan nan nan nan nan nan nan nan nan nan nan nan nan nan nan nan nan nan nan 0 nan nan 4
13 10 8 7 7 12 13 11 9 9 4 nan nan nan nan nan nan nan nan nan nan nan nan 1 1 5 0 nan nan nan nan nan nan nan nan nan nan nan nan nan nan nan nan nan nan nan 0 4 4 4 2 1 1 1 nan 0 0 3 6 0 0 nan 2 0 0 nan nan nan nan nan nan 0 nan nan 0 1 0 0 3 0 0 5 13 8 8 13
13 12 12 15 15 12 8 2 nan nan nan nan nan nan nan nan nan nan nan nan nan 0 nan 2 2 7 3 0 1 1 1 nan nan nan nan nan nan nan nan nan nan 0 4 4 4 4 5 9 9 5 2 1 nan nan 0 1 1 1 1 0 0 1 2 nan nan nan nan nan nan nan 0 0 0 0 nan nan 0 0 1 8 8 25 31 29 29 37
14 11 8 3 3 1 nan nan nan nan nan nan nan nan nan nan 2 2 8 8 8 8 7 14 14 20 29 27 8 8 nan nan nan nan nan nan nan nan nan nan nan 2 9 13 13 12 8 8 8 1 0 nan nan nan nan nan nan 0 nan nan nan 3 4 nan nan nan 0 2 1 1 0 nan nan nan nan nan nan nan nan 1 1 4 17 28 28 44
5 4 1 0 0 nan nan nan nan nan 1 1 0 0 3 2 13 13 16 15 15 20 24 17 17 14 4 nan nan nan nan nan nan nan nan 0 9 9 1 1 1 6 19 22 22 20 13 8 8 1 nan 0 nan nan 0 0 0 nan 1 nan nan 4 1 nan nan nan 6 3 3 3 nan nan nan nan nan nan nan nan nan 0 0 1 4 11 11 23
nan nan nan nan nan 0 4 1 2 2 2 3 3 3 2 4 8 8 14 13 13 10 7 5 5 3 0 1 0 0 nan nan nan nan nan nan nan nan nan 0 0 1 5 18 18 28 24 19 19 11 6 4 2 2 2 2 2 1 1 4 4 2 5 3 3 0 nan 0 nan nan nan nan nan nan nan 0 nan nan nan nan nan 1 2 1 1 7
nan nan nan 0 0 2 1 1 2 2 1 2 2 2 1 2 3 3 4 5 5 3 3 5 5 3 3 2 0 0 nan nan nan nan nan nan nan nan nan nan nan nan nan 1 1 11 24 27 27 26 20 15 11 11 8 6 6 7 6 5 5 4 2 2 2 nan nan nan nan nan nan nan 1 1 3 3 0 0 0 nan nan nan nan 0 0 3
2 2 1 1 1 0 nan nan nan nan nan 0 1 1 2 1 1 1 2 3 3 5 10 2 2 2 1 1 1 1 1 0 0 0 0 nan nan nan nan nan nan nan nan nan nan 0 1 4 4 15 28 26 19 19 18 17 17 14 14 10 10 7 3 1 1 nan nan nan nan nan nan 0 2 2 3 4 3 3 1 nan nan nan nan 0 0 2
1 0 0 0 0 nan nan nan nan nan nan 0 1 1 1 6 23 23 3 1 1 1 1 1 1 1 1 1 2 2 4 3 2 2 1 0 0 0 nan nan nan nan nan nan nan nan nan nan nan 1 9 21 16 16 17 17 17 20 16 14 14 8 3 nan nan nan nan nan nan nan nan 0 0 0 2 2 3 3 3 nan nan nan nan nan nan nan
0 nan nan nan nan nan nan nan nan nan nan nan 0 0 0 0 0 0 0 nan nan nan nan 0 0 nan 0 nan nan nan 0 nan nan nan nan nan nan nan nan nan nan 0 0 nan nan nan nan 0 0 4 15 18 13 13 8 5 5 5 5 6 6 2 nan nan nan nan nan nan nan nan nan 0 0 0 0 1 3 3 2 0 0 nan nan nan nan nan
0 nan nan nan nan nan nan nan nan nan nan 0 0 0 nan nan nan nan nan nan nan nan nan nan nan nan nan nan nan nan 1 nan nan nan nan nan nan nan nan nan nan nan 0 1 1 0 nan nan nan nan 7 29 17 17 5 2 2 2 2 3 3 nan nan nan nan nan nan nan nan nan nan nan nan nan nan 1 3 3 4 nan nan nan nan nan nan nan
CIN
-1 -2 nan nan nan -1 -2 nan nan nan nan nan nan nan nan nan nan nan nan nan nan nan nan nan nan nan nan nan nan nan nan nan nan nan nan nan nan nan nan nan nan nan nan nan nan nan nan nan nan nan nan nan nan nan nan -6 -6 -4 -2 -1 -1 -0 0 -0 -0 -0 -1 nan nan nan nan nan nan nan nan nan nan nan 0 0 0 0 0 -0 -0 0
nan nan nan nan nan nan nan nan nan nan nan nan nan nan nan nan nan nan nan nan nan nan nan nan nan nan nan nan nan nan nan nan nan nan nan nan nan nan nan nan nan nan nan nan nan nan nan nan nan nan nan nan nan nan nan nan nan -9 -7 -4 -4 -1 -1 -1 -1 -2 -3 nan nan nan nan nan nan nan nan nan nan nan 0 0 0 0 0 0 0 0
-7 nan nan nan nan nan -8 nan nan nan nan nan nan nan nan nan nan nan nan nan nan nan nan nan nan nan nan nan nan nan nan nan nan nan nan nan nan nan nan nan nan nan nan nan nan nan nan nan nan nan nan nan nan nan nan nan nan nan -13 -9 -9 -5 -4 -4 -4 -5 -7 nan nan nan nan nan nan nan nan nan nan nan 0 0 0 0 0 0 0 0
-9 -5 -4 nan nan nan nan nan nan nan nan nan nan nan nan nan nan nan nan nan nan nan nan nan nan nan nan nan nan nan nan nan nan nan nan nan nan nan nan nan nan nan nan nan nan nan nan -29 -29 -30 nan nan nan nan nan nan nan nan -19 -14 -14 -11 -10 -10 -10 -9 -13 nan nan nan nan nan nan nan nan nan nan nan 0 0 0 0 0 0 0 0
nan nan nan -10 -10 nan nan nan nan nan nan nan nan nan nan nan nan nan nan nan nan nan nan nan nan nan nan nan nan nan nan nan nan nan nan nan nan nan nan nan nan nan nan nan nan nan nan nan nan -24 -26 -30 -30 -30 nan nan nan -29 -23 -19 -19 -15 -13 -13 -13 -15 -20 nan nan nan nan nan nan nan nan nan 0 0 0 0 0 0 0 0 0 0
nan nan nan nan nan nan nan nan nan nan nan nan nan nan nan nan nan nan nan nan nan nan nan nan nan nan nan nan nan nan nan nan nan nan nan nan nan nan nan nan nan nan nan nan nan nan nan nan nan nan -29 -27 -28 -28 -26 -25 -25 -23 -20 -17 -17 -16 -16 -16 -16 -19 -23 nan nan nan nan nan nan nan nan 0 0 0 0 0 0 0 0 0 0 0
nan nan nan nan nan nan nan nan nan nan nan nan nan nan nan nan nan nan nan nan nan nan nan nan nan nan nan nan nan nan nan nan nan nan nan nan nan nan nan nan nan nan nan nan nan nan nan nan nan nan nan nan -25 -25 -20 -18 -18 -15 -16 -17 -17 -15 -15 -15 -15 -17 -19 -19 nan nan nan nan nan nan nan 0 0 0 0 0 0 0 0 0 0 0
nan nan nan nan nan nan nan nan nan nan nan nan nan nan nan nan nan nan nan nan nan nan nan nan nan nan nan nan nan nan nan nan nan nan nan nan nan nan nan nan nan nan nan nan nan nan nan nan nan nan nan nan nan nan nan -32 -32 -25 -16 -9 -9 -2 -2 -2 -2 -3 -3 -2 -2 -2 -1 -1 -1 -1 -1 -0 0 0 0 0 0 0 0 0 0 0
nan nan nan nan nan nan nan nan nan nan nan nan nan nan nan nan nan nan nan nan nan nan nan nan nan nan nan nan nan nan nan nan nan nan nan nan nan nan nan nan nan nan nan nan nan nan nan nan nan nan nan nan nan nan nan nan nan nan nan nan nan -18 -0 0 0 -0 -0 -0 0 0 -0 -0 -0 -0 -1 -1 0 0 0 0 0 0 0 0 0 0
nan nan nan nan nan nan nan nan nan nan nan nan nan nan nan nan nan nan nan nan nan nan nan nan nan nan nan nan nan nan nan nan nan nan nan nan nan nan nan nan nan nan nan nan nan nan nan nan nan nan nan nan nan nan nan nan nan nan nan nan nan nan nan 0 0 0 0 0 0 0 0 0 0 0 -1 -1 -0 -0 0 0 0 0 0 0 0 0
nan nan nan nan nan nan nan nan nan nan nan nan nan nan nan nan nan nan nan nan nan nan nan nan nan nan nan nan nan nan nan nan nan nan nan nan nan nan nan nan nan nan nan nan nan nan nan nan nan nan nan nan nan nan nan nan nan nan nan nan nan nan nan nan nan nan -0 0 0 0 0 0 -0 -0 -0 -1 -1 -1 -0 0 0 0 0 0 0 0
nan nan nan nan nan nan nan nan nan nan nan nan nan nan nan nan nan nan nan nan nan nan nan nan nan nan nan nan nan nan nan nan nan nan nan nan nan nan nan nan nan nan nan nan nan nan nan nan nan nan nan nan nan nan nan nan nan nan nan nan nan nan nan nan nan nan nan nan nan nan nan nan nan nan nan nan -2 -2 -2 -1 -1 0 0 0 0 0
nan nan nan nan nan nan nan nan nan nan nan nan nan nan nan nan nan nan nan nan nan nan nan nan nan nan nan nan nan nan nan nan nan nan nan nan nan nan nan nan nan nan nan nan nan nan nan nan nan nan nan nan nan nan nan nan nan nan nan nan nan nan nan nan nan nan nan nan nan nan nan nan nan nan nan nan nan nan nan nan nan nan -0 0 0 0
nan nan nan nan nan nan nan nan nan nan nan nan nan nan nan nan nan nan nan nan nan nan nan nan nan nan nan nan nan nan nan nan nan nan nan nan nan nan nan nan nan nan nan nan nan nan nan nan nan nan nan nan nan nan nan nan nan nan nan nan nan nan nan nan nan nan nan nan nan nan nan nan nan nan nan nan nan nan nan nan nan nan -3 -0 -0 0
nan nan nan nan nan nan nan nan nan nan nan nan nan nan nan nan nan nan nan nan nan nan nan nan nan nan nan nan nan nan nan nan nan nan nan nan nan nan nan nan nan nan nan nan nan nan nan nan nan nan nan nan nan nan nan nan nan nan nan nan nan nan nan nan nan nan nan nan nan nan nan nan nan nan nan nan nan nan nan nan nan nan -2 0 0 0
-16 nan nan nan nan nan nan nan nan nan nan nan nan nan nan nan nan nan nan nan nan nan nan nan nan nan nan nan nan nan nan nan nan nan nan nan nan nan nan nan nan nan nan nan nan nan nan nan nan nan nan nan nan nan nan nan nan nan nan nan nan nan nan nan nan nan nan nan nan nan nan nan nan nan nan nan nan nan nan nan nan nan -0 0 0 0
-11 -8 -3 -6 -6 -10 nan nan nan nan nan nan nan nan nan nan nan nan nan nan nan nan nan nan nan nan nan nan nan nan nan nan nan nan nan nan nan nan nan nan nan nan nan nan nan nan nan nan nan nan nan nan nan nan nan nan nan nan nan nan nan nan nan nan nan nan nan nan nan nan nan nan nan nan nan nan nan nan nan nan nan nan 0 0 0 0
-13 -10 -5 -2 -2 -8 nan nan nan nan nan nan nan nan nan nan nan nan nan nan nan nan nan nan nan nan nan nan nan nan nan nan nan nan nan nan nan nan nan nan nan nan nan nan nan nan nan nan nan nan nan nan nan nan nan nan nan nan nan nan nan nan nan nan nan nan nan nan nan nan nan 0 -0 -0 nan nan nan nan nan nan nan 0 0 0 0 0
-6 -8 -5 -2 -2 -4 nan nan nan nan nan nan nan nan nan nan nan nan nan nan nan nan nan nan nan nan nan nan nan nan nan nan nan nan nan nan nan nan nan nan nan nan nan nan nan nan nan nan nan nan nan nan nan nan nan nan nan nan nan nan nan nan nan nan nan nan 0 0 0 0 0 0 0 0 0 -0 -1 -1 nan nan nan -0 0 0 0 0
-5 -12 -13 -10 -10 nan nan nan nan nan nan nan nan nan nan nan nan nan nan nan nan nan -14 -10 -10 -7 -15 nan nan nan nan nan nan nan nan -9 -9 -9 nan nan nan nan nan nan nan nan nan nan nan nan nan nan nan nan nan nan nan nan nan nan nan nan nan 0 0 0 0 0 0 0 0 0 0 0 0 0 -0 -0 -0 -0 -0 -0 0 0 0 0
nan nan nan nan nan nan nan nan nan nan nan nan nan nan nan nan nan nan nan nan nan nan -16 -10 -10 -12 nan nan -22 -22 nan nan -1 -1 -3 -7 -10 -10 nan nan nan nan nan nan nan nan nan nan nan nan nan nan nan nan nan nan nan nan nan nan nan nan 0 0 0 0 0 0 0 0 0 0 0 0 0 -0 0 0 0 0 0 -0 0 0 0 0
nan nan nan nan nan nan nan nan nan nan nan nan nan nan nan nan nan nan nan nan nan nan -8 -8 -8 nan nan nan nan nan nan nan -20 -20 -15 nan nan nan nan nan nan nan nan nan nan nan nan nan nan nan nan nan nan nan nan nan nan nan nan nan nan 0 0 0 0 0 0 0 0 0 0 0 0 0 0 0 0 0 0 -0 -0 -0 0 0 0 0
nan nan nan nan nan nan nan nan nan nan nan nan nan nan nan nan nan nan nan nan nan nan -13 nan nan nan nan nan nan nan nan nan nan nan -12 nan nan nan nan nan nan nan nan nan nan nan nan nan nan nan nan nan nan nan nan nan nan nan nan nan nan nan 0 0 0 0 0 0 0 0 0 0 0 0 0 0 -0 -0 -0 -0 -0 -0 -0 0 0 0
nan nan nan nan nan nan nan nan nan nan nan nan nan nan nan nan nan nan nan nan nan nan nan nan nan nan nan nan -19 -19 -26 nan nan nan -14 nan nan nan nan nan nan nan nan nan nan nan nan nan nan nan nan nan nan nan nan nan nan nan nan nan nan nan 0 0 0 0 0 0 0 0 0 0 0 0 0 0 0 0 -0 -1 -1 -0 -1 -1 -1 -0
nan nan nan nan nan nan nan nan nan nan nan nan nan nan nan nan nan nan nan nan nan nan -2 -1 -1 -6 -13 -9 -18 -18 -36 nan nan nan nan nan nan nan nan nan nan nan nan nan nan nan nan nan nan nan nan nan nan nan nan nan nan nan nan nan nan nan nan 0 0 0 0 0 0 0 0 0 0 0 0 0 -0 -0 -0 -1 -1 -1 -2 -4 -4 -5
-2 -4 -8 -7 -7 0 0 0 0 0 -1 nan nan nan nan nan nan nan -2 -1 -1 -0 nan nan nan -7 nan nan nan nan nan nan nan nan nan nan nan nan nan nan nan nan nan nan nan nan nan nan nan nan nan nan nan nan nan nan nan nan nan nan nan nan nan nan nan 0 0 0 0 0 0 0 0 0 0 0 -0 -0 -0 -0 -0 -0 -1 -3 -3 -5
0 0 0 0 0 0 0 0 0 0 0 0 -2 -2 -1 -1 -27 -27 -41 nan nan nan nan nan nan nan nan nan nan nan nan nan nan nan nan nan nan nan nan nan nan nan nan nan nan nan nan nan nan nan nan nan nan nan nan nan nan nan nan nan nan nan nan nan nan -0 0 0 0 0 0 0 0 0 0 0 0 0 0 0 0 0 -1 -2 -2 -1
0 0 0 0 0 0 0 0 0 0 0 0 0 0 -0 -1 -11 -11 -22 nan nan nan nan nan nan nan -9 -10 -14 -14 -26 -28 -63 -63 nan nan nan nan nan nan nan nan nan nan nan nan nan nan nan nan nan nan nan nan nan nan nan nan nan nan nan nan nan nan nan nan -0 0 0 0 0 0 0 0 0 0 0 0 0 -0 -0 -1 -4 -6 -6 -6
0 0 0 0 0 0 0 0 0 0 0 0 0 0 0 -2 -7 -7 -19 -33 -33 nan nan nan nan -5 -5 -6 -16 -16 -23 -18 -40 -40 -75 nan nan nan nan nan nan nan nan nan nan nan nan nan nan nan nan nan nan nan nan nan nan nan nan nan nan nan nan nan nan nan nan -1 0 0 0 0 0 0 0 0 0 0 0 -0 -0 -2 -11 -8 -8 -4
-13 -1 0 0 0 0 0 -0 0 0 0 0 0 0 0 -8 -12 -12 -14 -33 -33 nan -6 -3 -3 -3 -4 -6 -13 -13 -22 nan -49 -49 -40 -19 -20 -20 -31 nan nan nan nan nan nan nan nan nan nan nan nan nan nan nan nan nan nan nan nan nan nan nan nan nan nan nan nan -2 0 0 0 0 0 0 0 0 0 0 0 -0 -0 -10 -23 -9 -9 -3
nan nan nan -20 -20 -18 -19 -38 -6 -6 0 0 0 0 -0 -23 nan nan nan nan nan -13 -4 -3 -3 -3 -4 -6 -6 -6 -13 nan -46 -46 -63 -19 -7 -7 -41 nan nan nan nan nan nan nan nan nan nan nan nan nan nan nan nan nan nan nan nan nan nan nan nan nan nan nan nan nan 0 0 0 0 0 0 0 0 -0 -0 -0 0 0 -8 -18 -8 -8 -3
-11 -12 -13 -19 -19 -24 -21 -25 -39 -39 -39 -34 -30 -30 -13 -18 nan nan nan nan nan nan nan nan nan -8 -7 -6 -5 -5 -7 nan nan nan nan nan nan nan nan nan nan nan nan nan nan nan nan nan nan nan nan nan nan nan nan nan nan nan nan nan nan nan nan nan nan nan nan -0 -0 -0 nan nan -8 -8 -6 -4 -1 -1 0 0 0 0 -8 -8 -8 -6
-10 -10 -11 -17 -17 nan -17 -23 -25 -25 -18 -21 -34 -34 -32 -24 -2 -2 -5 -22 -22 -21 -13 -15 -15 -10 -11 nan nan nan nan nan -4 -4 -18 nan nan nan -22 nan nan nan nan nan nan nan nan nan nan nan nan nan nan nan nan nan nan nan nan nan nan nan nan nan nan nan nan nan nan nan nan nan nan nan -6 0 0 0 0 0 0 0 -1 -5 -5 -4
nan nan nan nan nan nan nan nan -30 -30 -14 -5 -3 -3 -10 nan nan nan nan nan nan nan nan nan nan nan -24 -23 nan nan nan nan -4 -4 -3 -17 -10 -10 -12 -25 -25 nan nan nan nan nan nan nan nan nan nan nan nan nan nan nan nan nan nan nan nan nan nan nan nan nan nan nan nan nan nan nan nan nan -2 0 0 0 0 0 0 0 0 -2 -2 -2
nan nan nan nan nan nan -15 nan nan nan -21 nan nan nan nan nan nan nan nan nan nan nan -21 -20 -20 -19 -15 -4 -4 -4 -4 nan -13 -13 -3 -12 -5 -5 -3 -9 -9 -8 -5 -6 -6 -9 -11 -25 -25 -19 -24 nan nan nan nan nan nan nan nan nan nan nan nan nan nan nan nan nan nan nan nan nan nan nan nan -2 0 0 0 0 0 0 0 0 0 -2
nan nan nan nan nan nan -10 -11 -25 -25 -24 -22 -26 -26 -18 -8 -6 -6 nan nan nan nan -11 -16 -16 nan nan -6 -3 -3 -4 -15 -10 -10 -4 -6 -3 -3 -2 -5 -5 -7 -4 -2 -2 -3 -3 -4 -4 -2 -1 -6 -10 -10 nan nan nan nan nan nan nan nan nan nan nan nan nan nan nan nan nan nan nan nan nan -0 0 0 0 0 0 0 0 0 0 -0
nan nan nan nan nan -16 -6 -23 -24 -24 -21 -10 -23 -23 -22 nan nan nan nan nan nan nan nan nan nan nan nan nan -16 -16 -11 -12 -13 -13 -6 -8 -3 -3 -2 -4 -4 -5 -5 -2 -2 -3 -3 -5 -5 -6 -7 -11 nan nan nan nan nan nan nan nan nan nan nan nan nan nan nan nan nan nan nan nan nan nan nan -1 -1 -1 0 0 0 0 0 0 0 0
nan nan -9 -13 -13 -16 -20 -17 -16 -16 -29 nan nan nan nan nan nan nan nan nan nan nan nan nan nan nan nan nan nan nan nan nan nan nan -26 -25 -16 -16 -4 -4 -4 -3 -6 -6 -6 -5 -4 -5 -5 -8 nan nan nan nan nan nan nan nan nan nan nan nan nan nan nan nan nan nan nan nan nan nan nan nan nan nan nan nan nan nan nan -3 0 0 0 0
nan -7 nan -10 -10 -21 nan -15 nan nan nan nan nan nan nan nan nan nan nan nan nan nan nan nan nan nan nan nan nan nan nan nan nan nan nan nan nan nan nan -5 -5 -5 -7 -10 -10 -8 -5 -5 -5 -6 -7 nan nan nan nan nan nan nan nan nan nan nan nan nan nan nan nan nan nan nan nan nan nan nan nan nan nan nan nan nan nan nan nan nan nan -1
-4 -9 -10 -4 -4 -16 -20 nan nan nan nan nan -28 -28 -31 nan nan nan nan nan nan nan nan nan nan nan nan nan nan nan nan nan nan nan nan nan nan nan nan nan nan -6 -9 -12 -12 -8 -6 -7 -7 -6 -4 -8 nan nan nan nan nan nan -13 nan nan nan nan nan nan nan nan nan nan nan nan nan nan nan nan nan nan nan nan nan nan nan nan nan nan -10
-3 -7 -7 -13 -13 -13 -19 -22 -22 -22 -14 -9 -8 -8 -7 -4 -7 -7 -19 nan nan -17 -30 nan nan nan nan nan nan nan nan nan nan nan nan nan nan nan nan nan nan nan nan nan nan nan -5 -5 -5 -5 -7 -7 -5 -5 -6 -10 -10 -7 -3 -7 -7 -12 nan nan nan nan nan nan nan nan nan nan nan nan nan nan nan nan nan nan nan nan -23 nan nan -9
0 -0 -3 -8 -8 -5 -5 -6 -6 -6 -11 nan nan nan nan nan nan nan nan nan nan nan nan -23 -23 -15 -28 nan nan nan nan nan nan nan nan nan nan nan nan nan nan nan nan nan nan nan -5 -3 -3 -3 -5 -6 -5 -5 nan -10 -10 -7 -5 -13 -13 nan -14 -23 -23 nan nan nan nan nan nan -24 nan nan -24 -22 -27 -27 -23 -29 -29 -17 -9 -12 -12 -9
-0 -1 -2 -2 -2 -2 -5 -11 nan nan nan nan nan nan nan nan nan nan nan nan nan -20 nan -20 -20 -10 -14 -25 -26 -26 -31 nan nan nan nan nan nan nan nan nan nan -8 -4 -4 -4 -4 -5 -3 -3 -3 -5 -7 nan nan -6 -7 -7 -10 -11 -14 -14 -12 -7 nan nan nan nan nan nan nan -39 -28 -24 -24 nan nan -27 -27 -28 -15 -15 -4 -3 -6 -6 -4
-0 -1 -3 -6 -6 -12 nan nan nan nan nan nan nan nan nan nan -16 -16 -4 -6 -6 -10 -15 -8 -8 -4 -1 -1 -8 -8 nan nan nan nan nan nan nan nan nan nan nan -12 -5 -4 -4 -5 -6 -3 -3 -7 -10 nan nan nan nan nan nan -9 nan nan nan -8 -4 nan nan nan -27 -34 -41 -41 -41 nan nan nan nan nan nan nan nan -23 -23 -18 -9 -7 -7 -3
-4 -3 -9 -14 -14 nan nan nan nan nan -14 -10 -18 -18 -8 -14 -3 -3 -3 -4 -4 -3 -3 -4 -4 -3 -6 nan nan nan nan nan nan nan nan -18 -0 -0 -17 -18 -18 -10 -4 -3 -3 -3 -4 -4 -4 -13 nan -13 nan nan -9 -9 -9 nan -8 nan nan -9 -12 nan nan nan -15 -23 -23 -23 nan nan nan nan nan nan nan nan nan -21 -21 -17 -15 -10 -10 -6
nan nan nan nan nan -13 -3 -13 -11 -11 -9 -7 -7 -7 -11 -12 -8 -8 -3 -4 -4 -5 -7 -9 -9 -7 -7 -6 -8 -8 nan nan nan nan nan nan nan nan nan -24 -24 -19 -11 -5 -5 -3 -1 -3 -3 -6 -9 -10 -11 -11 -8 -11 -11 -10 -7 -8 -8 -9 -10 -16 -16 -25 nan -25 nan nan nan nan nan nan nan -19 nan nan nan nan nan -14 -13 -17 -17 -10
nan nan nan -11 -11 -7 -7 -8 -8 -8 -7 -6 -7 -7 -11 -13 -11 -11 -8 -7 -7 -9 -8 -7 -7 -5 -4 -5 -8 -8 nan nan nan nan nan nan nan nan nan nan nan nan nan -16 -16 -7 -3 -2 -2 -2 -3 -3 -6 -6 -8 -13 -13 -11 -10 -11 -11 -11 -9 -11 -11 nan nan nan nan nan nan nan -18 -18 -11 -10 -17 -17 -17 nan nan nan nan -15 -15 -10
-5 -4 -6 -6 -6 -7 nan nan nan nan nan -8 -9 -9 -9 -14 -12 -12 -10 -10 -10 -5 -1 -6 -6 -5 -5 -6 -7 -7 -6 -7 -8 -8 -10 nan nan nan nan nan nan nan nan nan nan -12 -9 -7 -7 -3 -1 -1 -2 -2 -5 -7 -7 -9 -10 -13 -13 -16 -17 -21 -21 nan nan nan nan nan nan -21 -11 -11 -9 -7 -8 -8 -13 nan nan nan nan -17 -17 -10
-6 -6 -7 -6 -6 nan nan nan nan nan nan -7 -9 -9 -12 -4 0 0 -5 -10 -10 -8 -5 -4 -4 -4 -4 -5 -4 -4 -1 -2 -5 -5 -7 -11 -13 -13 nan nan nan nan nan nan nan nan nan nan nan -6 -2 -1 -1 -1 -2 -5 -5 -7 -10 -10 -10 -12 -15 nan nan nan nan nan nan nan nan -19 -16 -16 -8 -4 -5 -5 -7 nan nan nan nan nan nan nan
-8 nan nan nan nan nan nan nan nan nan nan nan -8 -8 -13 -14 -13 -13 -12 nan nan nan nan -5 -5 nan -4 nan nan nan -4 nan nan nan nan nan nan nan nan nan nan -10 -8 nan nan nan nan -5 -5 -5 -1 -1 -1 -1 -2 -4 -4 -6 -8 -9 -9 -11 nan nan nan nan nan nan nan nan nan -18 -15 -15 -7 -2 -3 -3 -5 -12 -12 nan nan nan nan nan
-2 nan nan nan nan nan nan nan nan nan nan -5 -6 -6 nan nan nan nan nan nan nan nan nan nan nan nan nan nan nan nan -1 nan nan nan nan nan nan nan nan nan nan nan -4 -4 -4 -5 nan nan nan nan -6 0 -1 -1 -2 -3 -3 -4 -4 -6 -6 nan nan nan nan nan nan nan nan nan nan nan nan nan nan -1 -2 -2 -3 nan nan nan nan nan nan nan
Wind_Speed
2 2 3 3 4 4 4 5 6 7 6 5 4 3 3 3 3 3 3 3 2 1 1 1 2 2 3 4 6 7 7 8 8 9 9 9 10 10 10 10 11 11 11 11 11 11 10 10 10 11 11 11 12 13 14 15 15 16 17 17 17 17 16 15 14 14 14 15 15 16 17 17 17 17 17 18 18 19 21 21 21 19 18 18 19 21
2 2 2 3 3 4 4 5 5 5 4 4 3 3 3 3 3 2 2 1 1 1 2 2 2 2 3 4 5 7 8 8 9 9 10 10 10 10 11 11 11 11 11 11 11 11 11 11 11 11 11 11 12 12 13 14 15 16 17 17 17 16 15 14 14 14 14 14 15 16 16 16 16 16 16 17 18 19 20 21 22 21 20 19 19 21
2 2 2 2 3 3 4 4 4 3 3 3 3 3 3 4 4 4 4 5 5 5 4 4 4 4 4 4 6 7 8 9 10 10 11 11 11 11 11 11 11 11 11 11 11 11 11 11 11 11 11 11 11 12 12 13 14 15 16 15 15 14 13 13 13 13 13 14 14 15 15 15 15 16 16 17 17 18 19 20 21 22 22 20 20 21
2 3 3 2 3 4 5 4 4 3 3 3 2 2 2 3 3 3 3 4 5 5 5 5 5 4 4 4 5 7 9 10 11 11 11 11 11 11 11 11 11 11 11 11 11 11 10 10 10 10 10 10 11 11 12 12 13 14 14 14 13 12 11 12 12 12 13 13 13 13 14 14 15 16 16 17 17 18 18 19 20 21 22 22 21 21
3 3 3 2 3 4 4 3 3 2 3 3 3 2 2 2 3 3 3 3 3 4 4 4 4 4 4 4 5 7 10 11 11 11 11 11 11 11 11 11 11 11 11 11 11 11 10 10 10 10 10 10 11 11 11 12 12 12 12 12 11 11 11 11 11 12 12 12 12 13 13 14 15 16 16 17 17 18 18 19 20 21 22 22 22 21
3 3 2 2 2 2 2 1 1 2 2 3 3 3 3 3 3 3 3 3 3 3 3 3 3 4 4 4 5 7 9 10 10 10 10 10 10 11 11 11 11 11 11 11 11 11 11 11 11 11 11 11 11 11 11 11 11 11 11 11 11 11 11 11 11 12 12 12 12 13 13 14 15 15 16 16 17 17 18 19 19 20 21 22 22 22
3 3 2 2 2 2 2 2 2 2 2 3 3 3 3 3 3 3 3 3 3 3 3 3 3 3 3 4 5 6 7 8 9 9 9 10 10 10 11 11 12 12 12 12 12 12 11 11 11 11 11 11 12 12 12 11 10 10 10 10 10 11 11 12 12 12 12 12 13 13 13 14 14 14 15 16 16 17 18 19 19 20 21 22 22 23
4 3 3 3 3 2 2 2 2 2 2 3 3 3 4 3 3 3 3 2 2 2 3 3 3 2 2 2 3 4 5 5 6 6 7 8 9 10 10 11 12 12 12 12 12 11 11 11 11 11 11 11 12 12 12 12 11 10 10 10 10 11 11 12 12 13 13 13 13 14 14 14 14 14 14 15 16 17 18 18 19 20 20 21 22 23
4 4 3 3 3 3 3 3 2 2 2 2 3 3 4 4 3 3 3 2 2 2 2 2 2 3 2 2 3 3 5 5 5 6 6 6 7 8 9 10 11 11 11 11 11 10 10 10 10 11 11 11 12 12 12 12 12 11 11 11 11 11 12 12 13 13 14 14 14 14 14 14 14 14 15 15 16 17 17 18 19 20 20 21 22 22
4 4 3 3 2 2 3 3 3 2 2 2 2 2 2 3 3 3 3 3 2 2 2 2 3 3 4 3 3 4 5 6 8 9 10 9 10 10 9 9 8 8 9 9 10 10 10 10 11 11 11 11 11 12 12 12 12 12 12 12 12 12 12 12 13 13 14 14 14 14 15 15 15 15 15 16 16 17 18 18 19 20 20 21 21 22
3 3 3 3 3 2 2 3 3 2 2 2 2 2 1 1 2 3 4 4 4 3 2 2 2 3 4 4 4 4 5 6 7 8 10 10 11 11 9 8 7 6 7 8 9 9 9 10 10 11 11 11 11 12 12 11 12 12 12 13 13 13 13 13 13 13 14 14 14 15 15 15 16 16 16 17 17 17 18 18 19 19 20 21 21 22
3 3 3 3 3 2 2 3 2 2 3 3 3 3 2 2 2 2 4 5 5 4 4 3 3 3 3 4 4 4 4 5 5 5 6 6 6 6 5 5 5 5 6 6 7 8 9 10 10 10 10 10 11 11 11 11 12 12 13 14 14 14 14 14 14 14 14 14 15 15 16 16 17 17 18 18 18 18 18 19 19 19 20 21 21 22
3 2 2 3 3 2 2 3 3 3 3 3 3 4 3 2 2 2 3 4 5 5 4 4 4 3 3 3 3 3 4 4 4 4 4 3 3 2 2 2 3 3 3 4 4 5 7 8 9 9 10 10 10 11 12 12 13 13 14 15 15 15 15 15 15 15 15 15 16 16 17 17 18 18 19 19 19 19 19 19 19 20 20 21 21 22
3 3 3 3 3 2 2 2 3 3 3 2 3 3 3 3 3 3 3 4 4 4 4 5 5 4 3 3 3 3 3 3 3 3 3 2 2 1 1 2 3 3 3 3 3 4 5 6 6 7 9 9 10 10 11 12 13 14 15 16 16 17 17 17 17 17 17 17 17 17 18 18 19 19 20 20 20 20 20 19 19 20 21 21 22 22
3 3 3 3 3 3 2 2 3 3 3 3 3 3 3 3 3 3 3 4 4 4 4 5 5 5 3 3 2 1 1 2 2 2 3 2 2 1 1 3 3 3 3 4 4 4 5 5 5 5 6 7 8 9 11 12 14 16 16 17 18 18 18 18 18 18 18 18 18 18 18 19 19 19 20 20 20 20 20 20 20 20 21 22 22 23
2 3 3 3 3 3 2 2 3 3 3 3 3 3 3 3 3 3 3 4 4 4 4 4 5 5 4 3 1 0 1 1 1 2 3 3 2 1 1 2 4 4 4 4 4 4 4 4 5 5 6 8 11 13 15 15 16 17 18 18 19 19 19 19 19 19 19 19 19 19 19 19 19 19 20 20 20 20 20 20 20 20 21 22 22 23
2 3 3 4 4 3 2 2 2 3 3 2 2 2 3 3 3 3 3 3 3 3 3 3 4 5 4 3 2 1 0 1 2 3 4 4 3 2 1 2 4 5 5 5 5 5 5 5 5 6 6 10 13 16 17 17 18 19 19 19 20 20 20 20 20 20 20 20 20 19 19 19 19 20 20 20 20 20 20 20 20 20 21 22 22 23
3 3 4 5 5 4 3 3 2 2 2 2 2 2 2 2 2 2 3 3 3 3 3 3 4 4 4 4 3 2 1 2 3 4 5 6 5 3 2 3 3 4 4 5 5 5 5 5 6 7 9 13 16 18 19 19 19 19 20 20 20 20 20 20 20 20 20 20 20 20 20 20 20 20 20 20 20 20 20 20 20 21 21 22 22 23
4 4 5 6 6 6 6 5 4 4 4 3 3 3 3 3 2 2 3 3 3 4 4 4 4 4 4 5 4 3 2 3 3 4 5 6 5 3 2 2 3 4 5 5 6 5 5 6 8 11 14 17 18 19 19 20 20 20 20 20 20 20 20 20 20 20 20 20 20 20 20 20 20 20 20 20 20 20 20 20 20 21 21 22 22 22
5 4 5 5 6 6 6 5 5 4 5 5 5 5 5 5 4 4 4 4 4 4 5 5 6 5 4 5 4 3 1 1 2 4 5 5 5 3 1 2 4 5 6 6 5 5 6 6 8 10 14 16 17 19 20 20 20 20 20 20 20 20 20 20 20 20 20 21 21 21 21 21 20 20 20 20 20 20 21 21 21 21 21 21 22 22
5 5 4 4 4 4 5 4 4 4 5 5 5 4 5 5 5 5 5 4 5 5 4 5 6 5 4 5 6 5 2 3 4 4 4 5 6 5 3 3 4 6 7 6 6 5 6 6 6 7 10 14 17 18 19 20 20 21 21 21 21 21 21 21 21 21 21 21 21 21 21 21 21 21 20 20 21 21 21 21 21 21 21 21 22 22
5 5 4 4 4 4 5 5 6 6 7 5 4 4 4 4 5 5 5 5 6 6 6 7 6 6 5 6 6 5 4 4 4 4 4 6 7 6 3 3 4 5 7 6 5 5 5 6 6 7 10 14 17 19 20 20 21 21 21 21 21 21 21 21 21 21 21 21 21 21 21 21 21 21 21 21 21 21 21 22 22 21 21 22 22 22
6 6 6 5 6 6 6 6 7 7 7 6 5 5 4 4 5 6 6 6 6 7 7 7 6 6 5 6 6 6 5 5 5 5 5 8 8 6 3 3 4 5 6 5 5 5 5 5 6 7 10 15 17 19 20 20 21 21 22 22 22 22 22 22 21 21 21 21 21 21 21 21 21 21 21 22 22 22 22 22 22 22 22 22 22 22
7 7 7 7 7 6 6 6 6 6 6 6 6 6 6 6 7 7 6 7 7 6 6 6 7 6 6 6 6 6 6 5 5 5 6 7 7 6 3 3 4 6 7 5 5 5 6 6 6 6 7 13 16 18 19 20 21 22 23 23 23 23 23 22 22 21 21 21 21 21 21 21 22 22 22 22 22 21 21 21 21 21 21 21 21 21
7 7 7 7 8 9 8 8 8 8 7 6 6 7 7 8 9 9 8 7 7 6 5 6 7 7 6 6 6 6 5 5 5 5 5 6 6 6 4 4 5 6 6 5 5 5 5 5 5 5 6 9 13 16 18 20 21 22 23 24 24 24 23 23 23 22 21 21 21 21 21 22 22 22 21 21 20 20 20 19 19 20 20 20 20 20
11 11 12 13 15 17 18 18 17 16 15 11 8 7 7 7 8 7 7 6 5 5 5 6 7 7 6 6 6 6 5 4 5 5 5 5 5 5 4 4 5 6 6 5 4 4 5 5 5 5 5 7 10 14 17 19 21 22 23 24 24 24 24 23 23 22 22 21 21 21 21 21 21 20 19 18 18 17 18 18 18 18 19 19 19 19
19 19 21 21 22 22 22 22 23 23 23 20 16 12 9 7 6 6 5 3 3 4 5 6 7 8 7 6 6 6 5 4 3 4 4 4 5 6 5 4 4 5 6 4 4 4 5 6 5 5 5 5 7 10 15 18 20 22 23 24 24 24 24 23 23 23 22 22 21 21 21 20 19 18 17 16 16 17 17 18 18 19 19 18 16 15
20 20 20 21 21 22 22 22 21 21 21 21 21 19 14 9 7 7 6 3 3 5 7 8 8 8 8 8 7 5 4 3 3 3 3 4 5 6 5 4 4 4 4 4 4 4 6 6 5 5 5 5 6 8 12 16 18 20 21 22 22 23 23 23 23 22 22 22 21 21 20 19 18 17 16 16 16 17 17 18 19 18 17 14 11 10
17 18 19 19 20 20 20 19 18 18 18 19 19 18 13 9 8 8 8 6 6 7 9 9 9 8 8 8 7 6 5 4 4 3 3 4 5 5 3 2 3 3 3 3 3 4 5 5 4 4 4 6 6 6 8 11 14 15 16 18 19 20 21 21 22 22 22 22 21 20 19 18 17 17 17 17 17 17 18 19 18 16 13 10 9 9
10 11 13 13 14 14 14 12 12 13 16 17 18 17 13 9 7 7 8 7 7 8 10 9 8 8 7 7 7 7 5 4 3 2 1 3 4 3 1 2 2 2 1 2 3 4 4 4 3 3 4 5 5 5 5 7 7 8 9 12 14 15 18 20 21 22 22 21 20 19 18 18 18 18 18 18 18 18 19 20 18 14 9 8 8 8
6 7 7 7 7 7 7 7 8 9 11 13 14 13 11 8 7 7 7 7 7 8 9 9 8 7 7 6 6 6 5 3 2 1 0 2 3 2 1 2 3 2 1 2 3 4 5 3 3 3 3 3 4 4 4 5 5 5 5 6 8 10 15 18 20 20 21 20 19 18 18 18 18 18 18 18 18 19 19 20 18 14 9 8 8 8
7 7 6 6 5 5 5 6 6 6 7 8 8 9 9 8 8 7 6 6 6 7 8 8 8 8 7 7 7 7 5 3 2 2 2 3 3 3 2 3 4 3 2 2 3 4 5 4 3 3 3 4 4 3 4 5 5 5 5 5 6 8 13 16 17 17 16 17 17 17 17 17 18 18 18 19 19 20 20 21 19 15 10 8 8 8
8 7 7 7 7 6 6 6 6 6 6 6 6 6 7 7 7 7 6 6 6 7 7 8 8 8 8 8 8 7 5 4 4 4 5 4 4 4 3 3 4 4 3 3 4 4 5 5 5 4 4 5 4 4 4 5 5 5 5 6 7 8 11 12 12 12 11 12 12 13 15 16 17 17 18 19 19 20 20 21 20 17 13 9 8 8
8 9 8 8 8 7 7 7 7 6 6 6 6 6 6 6 6 7 7 7 7 6 6 7 7 7 7 7 6 6 5 4 5 6 7 5 4 3 3 3 4 4 4 4 4 4 5 6 6 5 5 5 5 5 5 5 5 6 6 7 7 7 8 7 7 8 8 8 8 9 11 11 13 15 16 17 18 18 20 21 21 20 18 13 10 8
8 8 8 7 7 7 7 7 6 6 7 7 7 7 7 7 7 7 7 6 6 5 5 5 5 5 6 6 6 6 6 5 6 7 8 5 4 4 3 3 4 4 5 5 5 4 5 6 6 7 6 5 5 4 4 4 5 5 5 6 7 7 6 5 5 6 7 7 7 7 7 7 8 10 11 13 15 17 19 20 21 22 22 19 16 12
7 7 7 6 6 7 7 7 7 7 7 7 6 6 7 7 6 6 5 4 4 4 5 5 5 5 6 6 7 8 8 6 6 7 8 6 5 4 5 4 5 5 6 7 6 5 5 5 6 6 6 6 5 4 3 3 3 4 4 5 5 6 6 5 5 5 6 6 6 6 7 7 7 8 9 12 15 18 20 21 22 22 22 22 20 18
6 6 6 6 6 6 7 6 5 5 6 6 5 5 5 6 6 6 5 5 5 5 6 6 7 7 8 8 8 8 8 7 7 7 8 7 6 6 6 6 6 6 6 8 8 7 6 7 7 7 7 7 6 5 4 3 3 3 4 4 4 5 6 6 5 5 5 7 7 7 7 7 7 8 9 13 15 17 18 20 20 20 21 22 22 22
6 6 6 6 5 5 6 5 5 5 5 5 5 5 5 6 7 7 7 7 8 8 7 7 7 8 10 11 11 10 9 9 9 9 9 8 7 7 8 8 8 8 8 8 8 8 7 8 9 9 8 8 8 9 8 6 5 5 5 4 5 5 5 5 5 5 5 7 8 8 9 8 8 8 8 9 10 10 11 11 13 15 17 18 19 21
6 6 6 6 6 5 6 6 6 6 6 6 6 6 6 7 8 8 7 8 8 8 8 8 8 8 10 11 12 12 12 11 10 10 10 9 9 8 9 9 9 9 9 8 8 8 8 8 9 8 8 8 8 8 8 7 7 7 6 6 6 6 6 5 6 6 6 6 7 8 8 8 7 7 7 6 6 7 7 7 9 10 10 10 12 15
7 7 7 7 7 6 6 6 6 6 5 6 6 7 6 6 6 6 6 6 7 7 8 8 8 8 8 9 10 11 11 9 10 10 9 9 8 8 9 9 9 9 9 8 8 8 9 9 9 9 9 8 8 8 7 7 7 7 8 7 6 6 6 6 6 6 6 6 7 7 7 6 7 7 7 7 7 7 7 6 7 8 8 7 7 8
7 7 7 6 6 6 6 5 5 5 5 5 5 5 5 5 5 5 5 5 6 6 6 6 7 7 7 7 8 9 10 11 12 12 10 10 10 9 9 9 9 9 9 9 8 8 9 9 10 10 10 9 9 10 10 9 10 10 11 9 8 7 7 8 7 6 6 6 7 7 8 8 8 9 8 8 8 8 7 7 7 7 7 7 7 7
8 7 6 6 5 5 5 5 6 6 6 6 6 6 6 6 6 6 6 6 6 6 6 6 6 7 8 8 8 9 10 10 11 10 10 9 9 9 8 8 8 8 8 8 9 9 9 10 10 10 10 10 9 9 9 9 10 11 11 10 9 9 9 9 8 7 7 8 8 8 10 10 9 8 8 8 8 8 8 8 9 9 9 8 8 8
7 7 6 6 6 6 7 7 7 7 6 6 6 5 5 5 5 6 6 7 7 6 6 6 6 7 8 8 7 6 6 5 5 6 7 7 7 8 8 9 8 8 8 8 9 9 10 11 11 10 10 10 10 10 10 10 9 10 10 10 9 7 6 6 5 5 6 7 8 8 8 8 8 7 7 7 7 7 7 9 10 11 11 10 9 9
7 7 7 7 7 7 7 6 6 6 6 6 6 6 6 6 6 7 7 7 7 6 5 5 6 7 8 8 7 6 6 6 7 8 9 9 9 9 9 9 9 9 9 9 9 9 9 10 10 10 10 9 10 10 10 10 9 9 9 9 9 9 8 6 5 6 7 7 7 6 7 6 6 6 6 6 7 7 7 8 9 9 10 10 9 9
7 7 7 6 6 6 6 6 6 6 6 7 7 7 7 7 7 7 7 7 7 7 6 6 6 7 7 8 8 8 7 7 7 8 8 10 11 12 11 9 9 9 10 9 9 9 9 9 9 9 8 9 10 10 11 10 10 10 10 10 10 10 10 8 7 7 7 7 7 7 7 6 6 6 7 7 7 8 8 8 9 9 10 9 9 10
6 6 6 6 6 7 7 7 7 7 7 7 7 7 6 6 6 6 7 7 7 7 7 7 6 7 8 8 8 8 7 8 8 7 7 7 7 8 8 8 9 9 9 9 9 9 9 9 9 8 8 8 9 10 10 10 10 10 10 10 10 10 10 9 8 8 7 7 7 7 7 6 6 6 7 8 8 8 8 9 9 10 10 9 9 10
6 7 7 7 7 7 7 7 7 7 7 7 7 7 6 6 6 6 6 7 7 7 7 7 7 7 8 8 8 8 8 9 9 8 7 7 7 6 7 7 8 9 9 9 10 10 10 10 10 9 8 8 9 9 9 9 9 9 9 8 8 8 8 8 8 8 7 7 7 7 6 6 7 7 8 9 9 8 9 9 9 9 10 9 10 10
7 7 7 7 7 7 7 7 7 7 7 7 7 7 6 6 7 7 7 6 6 7 7 7 7 8 8 8 8 8 9 9 9 9 8 7 7 6 6 6 6 7 8 9 10 11 12 12 12 12 11 10 10 10 9 9 8 8 7 6 7 7 8 8 8 7 7 7 7 7 7 7 7 8 8 9 9 8 8 9 9 8 9 9 9 9
7 7 8 8 8 7 7 7 7 7 8 8 8 7 7 7 8 8 7 6 6 6 7 7 8 8 8 8 8 9 9 10 9 9 9 8 7 6 6 6 6 6 7 8 9 10 11 12 13 14 13 12 11 11 11 10 9 8 7 6 6 7 8 8 8 8 7 8 9 9 8 7 7 8 8 9 9 10 10 9 9 9 8 8 8 9
7 8 8 8 8 8 8 7 7 8 8 8 8 8 7 7 6 6 6 6 6 6 7 7 8 8 9 9 9 9 9 9 9 9 9 8 7 7 6 6 6 6 6 6 6 7 7 8 10 12 15 15 14 13 11 11 10 9 9 8 8 8 8 9 9 8 8 9 9 9 9 8 7 7 7 9 10 10 10 10 9 9 8 7 8 9
8 8 7 7 7 8 7 7 8 8 8 8 8 8 8 7 6 6 6 6 6 7 7 7 8 8 9 9 9 9 9 9 9 9 9 8 7 7 7 7 7 7 7 6 6 5 5 5 6 8 10 15 17 16 12 11 10 10 9 9 8 7 8 8 8 8 9 9 8 8 8 8 8 7 7 8 9 9 10 9 9 9 8 7 7 8
Wind_Direction
298 305 311 305 300 295 293 286 284 284 287 287 281 264 237 226 217 208 203 199 199 214 258 267 275 280 284 289 291 293 295 295 295 295 295 295 295 295 295 295 294 294 293 291 290 288 285 283 281 279 278 277 276 277 277 277 278 280 281 282 284 286 288 291 294 298 303 307 310 313 314 316 317 317 317 316 314 312 311 309 303 293 276 257 243 234
288 291 292 276 271 271 276 263 256 255 262 273 284 295 308 312 311 306 299 300 312 322 323 319 315 309 300 296 296 297 299 300 300 299 299 299 298 298 298 298 298 297 296 295 293 292 290 287 286 284 283 280 279 278 277 276 277 277 277 278 279 281 283 285 289 293 298 303 306 309 311 312 313 314 314 313 312 310 309 308 306 301 291 273 255 241
298 294 290 278 271 271 276 269 258 249 253 275 298 319 334 331 329 328 329 329 330 332 332 331 328 322 313 305 301 301 301 302 302 302 301 301 301 301 301 301 301 301 300 299 298 297 295 294 293 293 292 290 288 285 282 279 276 275 273 273 274 275 276 279 283 287 292 297 301 304 306 308 309 311 312 312 312 310 308 307 306 303 299 287 270 253
286 281 276 271 265 263 264 270 273 278 288 298 307 314 318 313 313 313 316 319 321 323 322 322 321 316 309 303 300 300 301 302 303 304 305 305 306 307 307 307 307 307 307 307 306 305 304 303 303 302 302 300 298 295 290 284 279 274 270 268 267 268 269 272 276 281 286 292 295 298 301 303 306 308 310 311 311 310 308 306 304 303 300 294 283 267
275 271 267 256 252 251 250 257 272 292 304 303 302 299 297 291 290 291 292 298 303 307 309 311 308 304 299 296 296 298 301 304 306 308 310 312 313 314 315 315 314 314 314 314 314 313 312 311 310 309 309 308 306 303 298 291 283 276 269 265 262 262 262 267 272 277 283 288 292 295 298 301 303 306 308 310 310 310 308 306 303 301 300 297 291 280
288 286 288 283 280 279 283 286 305 315 311 304 302 300 296 292 291 292 294 298 300 301 300 301 298 293 289 288 292 298 303 308 312 315 317 318 319 319 319 318 317 317 316 316 316 315 314 313 313 313 314 313 313 310 307 299 291 281 272 265 262 261 263 268 273 278 284 288 291 294 296 299 302 304 306 308 309 309 308 306 303 301 299 297 294 288
298 300 309 306 307 309 313 314 320 322 314 308 306 304 300 298 299 299 299 303 303 301 298 294 291 288 286 289 296 303 309 313 317 319 320 319 318 318 317 316 315 314 314 314 313 314 314 315 317 318 320 320 320 319 317 312 304 294 283 276 271 269 270 274 278 282 286 289 292 294 296 298 300 302 305 307 308 309 308 306 304 301 299 297 295 292
299 302 307 305 306 306 303 303 311 319 318 312 310 308 305 304 302 302 303 307 306 303 300 299 299 299 300 303 310 314 315 317 317 317 317 315 314 313 313 312 312 311 312 312 313 315 317 320 322 324 326 326 326 326 327 324 320 313 305 296 290 286 284 285 286 288 290 291 293 294 295 297 299 301 303 306 307 307 307 306 305 303 300 298 296 294
300 302 303 302 305 306 304 302 311 326 332 320 312 309 308 307 306 306 308 310 313 318 320 319 317 316 315 317 318 317 315 312 311 310 309 308 309 309 308 309 310 311 313 315 317 320 324 326 326 327 328 327 328 329 330 330 328 325 320 315 308 303 299 296 295 294 293 294 294 295 296 298 299 301 302 304 305 305 305 305 305 303 301 299 297 295
298 301 302 302 305 306 305 304 310 325 341 328 313 303 301 307 312 315 315 314 322 334 343 336 326 320 315 314 314 313 312 309 306 305 304 303 304 304 305 307 312 316 319 321 324 326 327 326 325 324 324 325 326 327 328 329 328 326 323 320 316 311 307 304 301 298 297 297 297 298 299 300 301 302 302 302 303 303 303 303 303 303 302 300 298 295
299 300 299 300 301 303 297 297 304 318 338 329 319 308 303 323 330 329 322 315 319 326 328 322 316 313 311 310 309 309 309 305 303 303 302 301 302 303 305 310 316 323 326 325 325 325 324 322 320 319 319 320 320 321 322 323 322 320 318 316 314 311 309 306 304 302 301 301 302 302 303 304 304 303 303 302 301 301 301 301 301 301 300 299 298 296
295 296 292 293 297 299 297 299 308 323 338 332 324 318 319 341 353 339 318 310 310 312 311 305 299 296 297 301 303 303 301 297 296 296 297 298 299 302 308 315 323 327 327 324 321 319 317 315 314 314 314 314 314 314 314 313 312 311 310 308 307 306 305 304 303 303 303 304 304 305 306 306 305 304 303 302 301 300 299 298 298 298 298 297 297 295
283 284 284 287 291 296 300 309 316 323 328 322 312 306 305 317 327 322 304 299 299 302 304 301 296 290 285 285 289 292 292 289 287 287 289 290 296 308 319 321 320 320 320 317 312 308 309 308 308 308 308 307 307 306 306 304 303 302 301 301 300 300 299 299 299 300 300 302 303 303 304 304 303 302 301 300 299 298 297 296 295 295 295 295 295 294
280 279 280 283 286 290 296 303 304 303 302 298 292 289 289 298 305 305 298 292 292 296 299 296 294 293 288 279 275 275 282 286 287 288 288 287 289 299 319 312 308 306 309 306 299 295 296 300 301 301 301 299 299 299 297 297 296 296 295 295 295 295 295 295 295 296 296 297 298 298 299 299 298 298 298 297 297 296 295 295 294 293 293 293 293 292
278 279 279 279 279 277 276 278 280 280 278 274 274 279 286 291 293 294 292 291 294 299 300 295 293 290 283 275 270 272 293 294 294 294 291 285 279 277 302 305 303 300 302 299 294 291 292 292 289 287 288 287 287 287 288 289 290 291 292 292 292 293 293 293 293 293 293 293 293 293 294 294 294 294 294 294 294 294 294 294 293 292 292 291 291 290
284 282 283 282 280 275 265 260 263 267 270 265 265 270 280 283 283 282 281 287 293 300 301 301 299 295 284 276 276 305 19 308 292 291 297 288 281 274 301 304 301 298 298 295 293 292 294 288 282 278 279 281 284 286 287 288 289 290 290 291 291 291 291 291 291 291 291 291 291 290 290 290 290 290 290 291 292 292 293 293 292 292 291 290 289 288
294 291 291 293 292 287 279 262 258 262 269 268 265 263 265 269 271 273 274 283 291 296 295 300 301 300 298 299 300 309 21 319 304 299 300 292 287 284 284 287 288 289 291 289 289 290 293 289 286 282 279 281 284 287 288 288 289 289 290 290 290 290 289 289 289 289 289 289 289 288 288 287 287 288 288 289 290 290 291 292 292 292 291 289 288 287
296 297 298 297 296 297 300 291 280 272 269 269 268 263 257 256 260 265 270 279 287 290 291 289 286 287 294 295 295 295 307 306 302 297 293 286 283 278 262 263 269 276 282 281 282 283 285 283 283 282 281 284 286 287 288 289 289 289 288 288 288 288 288 288 287 287 287 287 287 286 286 286 286 286 286 287 288 289 290 291 291 291 290 289 287 286
296 296 296 295 295 296 296 295 293 290 286 282 281 281 278 276 276 276 275 278 279 279 281 279 275 273 277 281 283 284 275 279 282 283 279 277 275 269 243 253 266 273 276 275 276 277 276 276 277 279 280 283 285 286 287 287 287 287 287 287 286 286 286 286 286 286 286 285 285 285 285 285 285 285 285 286 286 287 288 289 289 289 289 288 287 286
291 288 285 287 289 289 288 287 287 290 294 298 300 300 298 298 295 289 284 281 276 272 272 273 273 273 275 279 280 279 251 252 263 269 269 273 273 269 254 270 275 275 273 270 269 268 268 269 272 276 278 280 281 283 284 285 285 285 285 285 285 285 285 285 285 284 284 284 284 284 284 284 284 284 284 284 285 286 287 287 287 287 287 286 286 285
285 281 278 280 283 285 285 284 284 286 291 296 298 297 295 296 292 287 284 281 277 273 270 269 270 273 277 279 281 282 272 271 274 277 278 278 277 276 277 273 271 270 269 268 265 262 261 262 264 267 271 275 277 279 281 282 283 283 284 284 284 284 284 284 284 283 283 283 283 284 284 284 284 283 284 284 285 285 286 286 286 285 285 284 284 283
275 274 271 266 265 268 273 274 275 275 276 278 277 276 278 279 278 277 275 273 270 267 264 264 265 267 268 270 272 273 266 262 266 272 280 275 272 269 266 263 264 265 265 266 264 260 257 258 258 261 264 269 273 276 278 280 281 282 283 284 284 284 284 283 283 283 283 283 283 283 284 284 284 284 284 284 285 285 285 285 284 284 283 282 282 281
261 264 264 258 255 256 261 263 263 261 259 255 252 252 253 255 260 262 262 259 259 259 259 260 261 262 260 263 265 264 254 247 249 257 265 268 269 268 254 250 255 259 259 260 261 260 254 254 255 258 262 267 270 273 276 278 280 281 282 283 283 283 283 283 283 283 283 283 283 284 284 284 284 284 284 284 284 284 284 283 283 282 281 280 279 279
254 257 259 257 255 254 255 255 254 251 246 243 242 242 240 242 246 250 253 253 255 257 259 262 264 265 264 265 267 264 252 238 236 242 250 259 263 264 250 244 252 258 258 254 253 254 254 251 250 252 257 263 266 270 273 276 278 280 282 282 283 283 283 283 283 283 283 283 283 283 283 283 283 282 282 282 282 282 283 283 283 282 281 279 278 277
258 258 259 260 260 260 261 260 259 256 250 244 242 243 242 245 248 251 252 252 252 254 258 263 268 272 276 278 277 272 261 233 224 229 242 254 259 258 246 238 248 257 258 250 245 245 252 251 249 248 251 259 263 267 271 274 277 279 281 281 282 282 283 283 282 283 283 283 283 283 283 282 281 280 280 280 282 283 285 286 286 286 285 283 281 278
283 282 282 281 280 280 280 279 277 274 272 266 257 249 247 248 248 249 247 244 246 253 263 270 276 282 288 288 284 279 273 243 225 221 232 250 258 257 246 235 243 253 258 251 242 242 251 253 250 248 249 255 261 265 269 272 274 277 278 280 281 282 282 283 283 284 284 285 285 285 284 282 281 281 281 282 285 287 290 292 293 293 292 291 287 283
290 290 290 290 290 290 290 290 289 288 287 285 282 278 272 265 260 256 248 243 251 269 278 283 288 290 290 283 279 277 276 262 239 226 228 248 259 260 253 243 244 252 259 256 247 243 250 254 254 251 251 253 256 260 266 269 272 274 276 277 279 280 282 283 284 286 287 288 289 288 287 285 284 284 285 287 289 291 293 294 295 295 295 294 291 285
288 288 288 288 289 289 289 290 292 293 294 293 292 291 288 284 279 277 275 283 292 292 287 289 291 291 287 281 280 281 284 278 263 244 231 247 257 261 263 257 253 255 263 266 257 248 248 253 254 253 253 254 255 258 263 266 269 271 273 275 277 279 281 283 286 288 290 291 292 291 290 289 288 288 288 289 290 291 292 293 293 294 293 291 287 282
284 284 284 285 286 288 289 291 292 293 294 294 294 293 292 287 283 284 288 297 299 293 287 286 285 284 282 284 285 285 282 278 271 257 235 249 258 264 278 273 264 261 269 277 271 258 245 248 249 251 251 252 252 255 260 262 266 269 271 273 275 278 281 284 286 288 290 291 291 291 290 290 290 290 290 291 291 292 292 292 292 291 289 285 281 276
283 283 284 285 287 289 292 294 294 294 293 292 292 291 289 285 283 283 288 291 288 283 281 280 278 276 279 285 285 282 275 273 270 257 225 252 264 277 319 293 272 263 262 282 281 272 259 252 250 252 255 252 250 250 254 257 260 263 266 271 274 277 279 282 284 286 287 287 287 288 288 288 289 290 291 292 292 293 292 292 291 289 283 279 277 274
295 294 292 292 292 293 294 293 293 292 291 291 290 289 285 281 277 275 277 276 273 272 273 273 273 272 275 281 282 279 276 273 268 246 145 261 273 289 332 295 277 263 233 256 278 283 281 271 261 258 265 258 250 245 247 251 253 255 258 267 271 275 276 279 280 282 283 284 284 284 285 286 288 289 291 292 293 293 293 291 290 287 280 276 274 273
310 307 305 305 304 301 296 293 291 288 286 285 284 281 277 273 271 269 268 267 266 266 268 270 270 270 270 270 270 272 276 278 281 285 296 281 282 285 291 282 277 272 253 241 258 273 283 283 277 269 270 266 257 247 242 249 252 255 258 264 268 271 272 274 276 278 279 281 282 283 285 286 288 289 290 291 291 291 290 289 287 285 279 274 270 269
311 309 307 306 304 302 299 296 293 289 285 282 278 275 274 272 272 271 269 265 262 260 262 265 268 268 267 265 265 267 275 283 290 291 288 281 280 281 278 271 272 275 276 259 254 260 272 279 280 277 269 265 260 253 247 249 251 254 256 258 261 264 267 269 272 275 277 279 282 284 286 287 288 288 288 288 288 287 287 286 285 283 280 275 270 268
308 306 303 302 300 298 296 295 294 292 290 290 288 286 284 281 277 272 266 259 254 250 251 257 263 267 269 269 270 273 279 286 291 290 284 278 277 278 278 267 269 274 281 271 263 261 267 271 274 274 270 264 259 254 250 250 249 248 247 248 251 255 260 262 266 270 274 277 281 284 286 287 287 286 285 284 284 283 283 282 281 280 278 276 273 270
306 303 301 299 297 295 295 294 293 293 292 292 292 291 288 284 278 272 265 260 257 254 254 257 263 269 275 279 280 280 280 283 286 287 284 282 282 284 282 271 272 277 280 274 269 266 268 267 266 265 267 266 261 254 247 246 246 245 243 241 243 246 249 250 255 262 269 272 274 276 279 280 280 280 279 279 279 279 279 279 278 278 277 276 274 272
305 303 300 297 296 295 294 292 290 288 286 283 281 280 280 280 279 278 278 280 282 283 281 276 272 270 270 271 273 276 278 280 281 282 281 280 280 281 279 275 275 277 278 275 272 271 272 273 269 266 267 271 269 262 247 241 242 245 244 240 240 242 244 242 244 251 261 265 267 269 269 270 270 270 272 273 274 275 275 276 276 276 276 275 274 272
301 299 298 295 293 292 291 288 284 280 278 277 276 277 280 284 290 295 299 297 293 288 283 278 275 271 267 267 268 271 276 278 277 276 274 275 275 275 275 275 274 272 271 273 275 276 276 278 278 276 274 274 275 275 272 266 262 257 250 238 237 241 246 243 241 243 251 257 260 261 262 263 264 265 267 270 271 272 274 274 274 275 275 275 274 272
293 292 292 290 289 288 288 285 283 281 280 282 285 286 288 289 291 293 295 293 290 287 284 281 278 274 271 271 270 270 272 272 271 269 268 267 267 268 270 272 271 268 265 269 272 274 274 274 275 275 273 272 273 275 278 278 276 272 265 250 242 241 245 244 242 241 245 252 255 258 258 257 258 260 262 265 266 267 270 270 271 272 274 274 273 272
288 287 286 285 284 282 282 282 283 284 286 288 288 288 287 286 286 285 285 285 284 282 280 278 276 274 272 271 270 269 269 268 265 262 260 258 257 258 262 265 266 265 263 264 265 266 265 265 266 267 270 271 272 272 273 273 273 272 273 268 260 254 249 246 243 242 243 247 252 254 255 254 253 253 255 257 258 260 262 265 266 267 269 271 272 272
286 284 282 281 280 279 278 280 281 283 285 285 285 284 283 281 279 277 275 273 272 271 270 268 268 269 267 267 266 266 266 264 260 257 254 250 248 249 253 257 260 262 262 260 258 258 257 259 261 262 264 267 269 270 269 267 266 267 269 269 265 260 255 251 247 244 242 243 246 249 252 251 250 249 249 249 250 252 254 258 261 263 263 263 266 270
287 285 283 283 283 283 282 285 289 292 293 293 292 291 289 289 287 284 281 278 276 275 273 270 270 269 267 263 261 261 260 258 256 254 253 249 247 247 250 254 257 259 259 257 255 253 252 255 258 261 262 263 265 266 265 263 262 263 263 262 263 263 262 258 255 252 249 247 246 247 249 250 249 247 246 246 245 246 248 251 255 257 258 255 255 257
292 293 295 298 301 304 307 310 310 309 308 306 304 302 300 300 299 297 295 292 288 286 284 282 281 280 277 272 266 260 256 255 255 255 256 254 252 251 252 254 256 257 258 258 255 253 250 251 254 256 258 260 262 263 262 260 259 258 257 259 262 266 267 261 257 253 252 250 249 248 248 249 248 246 245 245 246 246 247 248 250 252 254 252 250 248
302 304 307 311 314 316 316 315 312 310 307 304 300 296 294 293 291 289 288 286 284 284 283 282 281 280 277 274 270 267 262 260 264 269 271 267 261 256 255 254 255 255 257 257 256 253 251 249 249 250 252 255 257 259 261 260 258 256 254 255 257 260 263 259 255 251 250 249 247 245 244 245 246 246 245 246 248 250 252 254 255 256 255 255 253 249
306 307 309 310 309 307 306 304 301 299 297 293 291 289 288 286 284 283 283 283 285 286 286 285 285 284 283 285 288 290 292 290 288 285 281 277 272 267 264 261 259 257 255 255 256 256 255 251 249 248 248 249 252 254 256 257 256 255 252 251 250 250 252 256 258 257 255 252 248 244 243 245 247 250 253 253 254 256 256 258 258 258 257 257 257 255
302 302 302 301 301 300 298 296 295 295 294 293 292 291 291 290 290 289 290 291 292 292 292 294 293 291 287 288 288 288 287 284 281 278 276 273 271 270 268 266 264 262 259 258 259 259 260 257 255 252 249 247 248 249 252 254 254 254 252 248 246 246 246 250 252 253 254 254 253 252 249 250 254 259 260 259 258 257 256 256 257 256 256 255 255 255
297 296 296 297 297 297 297 298 297 296 294 293 292 292 293 293 293 292 291 292 292 292 291 291 289 284 281 282 283 285 285 285 283 281 278 274 269 265 262 261 261 262 263 263 264 265 265 266 266 265 260 254 249 247 247 250 252 253 252 249 247 247 247 247 246 246 248 252 254 255 253 254 256 257 258 258 258 257 255 253 252 251 251 251 250 251
294 296 297 299 299 299 298 299 297 295 293 292 292 293 294 294 293 292 290 289 289 289 289 287 283 280 280 283 285 287 288 287 287 285 283 279 273 267 262 259 257 257 258 261 263 265 266 268 269 270 268 264 260 256 253 251 250 251 252 249 247 246 247 248 247 247 247 250 254 256 256 255 254 253 253 255 256 256 254 251 249 247 246 247 247 248
299 300 300 300 299 298 297 296 295 294 293 293 293 293 293 294 294 293 291 291 290 290 290 288 285 282 281 281 283 284 285 286 287 287 287 285 281 275 268 263 259 256 255 255 257 258 260 261 262 262 264 265 267 267 266 261 257 254 253 251 249 248 249 251 251 252 252 253 253 253 252 251 250 250 251 254 254 254 254 252 248 245 242 243 243 245
300 299 299 298 297 295 294 294 294 293 293 293 294 294 293 292 293 293 292 292 291 289 288 287 286 285 284 284 284 285 285 285 286 287 287 287 286 283 278 272 267 262 258 255 254 254 254 254 253 251 250 253 258 263 267 265 263 260 258 254 253 253 255 256 256 256 255 254 253 251 248 246 245 245 247 251 253 255 256 255 252 249 244 241 240 240
297 296 296 295 294 293 293 293 293 293 293 294 294 294 293 292 291 290 288 288 286 285 283 284 284 284 284 284 284 284 283 283 283 282 282 283 283 282 280 277 273 270 266 261 257 255 254 254 250 245 240 239 242 248 256 259 259 258 256 253 252 253 255 258 258 258 255 255 253 251 247 246 243 241 241 246 250 253 255 256 255 252 248 242 238 238
296 295 294 293 292 292 292 293 293 293 293 293 293 293 294 293 292 290 287 286 284 283 281 281 280 280 280 281 281 281 280 279 279 279 279 280 280 280 278 277 275 273 272 270 267 264 262 263 260 252 241 234 231 232 240 246 250 251 251 249 248 248 250 254 256 256 254 253 252 251 249 246 243 240 237 240 245 250 252 253 254 253 250 243 238 237